STARLINK-32308, 61663

Orbit data source: Space-Track

STARLINK-32308, 61663 is a payload satellite owned by SpaceX/Seattle (US) in LEO that was launched on Sat, 26 Oct 2024 UTC via an FALCON 9 launch vehicle from the Air Force Eastern Test Range (AFETR). Payload-class satellites include a variety of spacecraft equipped with specific instruments for various scientific and technological missions. These include communications satellites like Starlink; space stations such as the ISS; scientific satellites like the Hubble; Earth observation satellites from companies like Planet Labs, Umbra, and HawkEye 360; GPS; miniature CubeSats for education and research; and military/defense satellites.

Loading next visibility...
Identifier
61663, 2024-193C
Orbit
LEO
Last TLE update
20 hours ago
Origin
Manufacturer
SpaceX/Seattle
Mission
Operational Commercial Communications
Bus & Motor
STARLINK V2M, Unknown motor
Mass
730 kg wet, ~700 kg dry
Launch date (UTC)
2024-10-26 (8 months ago)
Launch vehicle
FALCON 9
Launch site
Air Force Eastern Test Range (AFETR)
Object type
Payload
Rocket body
Debris
Shape & HBR
Box + 2 Pan, 29 m
Radar Cross Section
36.964 m², Large (>1 m²)

Expand to show TLE details & history

TLE from 20 hours ago
0 STARLINK-32308
1 61663U 24193C   25181.52727634 -.00000208  00000-0  51006-5 0  9992
2 61663  53.1598 181.9764 0001199  84.2019 275.9118 15.30188787 37927
Epoch: 2025-06-30T12:39Z
TLE epoch observation values (Epoch: 2025-06-30T12:39:16.675Z)
Latitude
-0.00007°
Longitude
73.32107°
Altitude
476.064 km
Speed
7.629 km/s
True Right ascension
12h 07m 54s
True Declination
0° 00' 00"
Sunlit
Object was in daylight at epoch
Visualization orbit readout
Latitude
-43.53644°
Longitude
24.3589°
Altitude
490.555 km
Speed
7.619 km/s
Apparent Right ascension
08h 38m 29s
Apparent Declination
-41° 39' 37"
Sunlit
Object is in daylight
Visualization observer readout
Local Sidereal Time
20:24:41
Azimuth
235.155° WSW
Elevation
-86.859°
Doppler factor
1
Orbital elements
Apogee altitude
476.327 km
Perigee altitude
474.683 km
Semi-major axis
6,853.642 km
Eccentricity
0.00012
Inclination
53.1598°
RAAN
181.9764°
Arg. of periapsis
84.2019°
True anomaly
Unknown
Mean anomaly
275.9118°
Eccentric anomaly
Unknown
Mean motion
3.82526 °/min
Orbital period
94.11 mins
BSTAR
0.0000051006
Loading maneuver chart data...
Loading SW <> Apogee altitude chart data...
Loading historical data...
Loading historical data...
Loading historical data...
Loading historical data...
Loading historical data...
Loading historical data...
Loading historical data...

STARLINK-32308 Visibility forecast

Observer location: undefined°, undefined°

Span
Click to sort rows by Start time (UTC) header in descending order
Start Az.
Max El. time (UTC)
Max El. Az.
Max El.
End time (UTC)
End Az.
7 mins2025-07-01 09:31:31.088Z311.295° NW2025-07-01 09:34:31.088Z326.352° NNW42.973°2025-07-01 09:38:31.088Z128.624° SE
5 mins2025-07-02 02:28:31.088Z226.889° WSW2025-07-02 02:30:31.088Z71.807° E44.666°2025-07-02 02:33:31.088Z50.824° ENE
|